RH
22 22 22 23 23 23 23 23 23 23 22 21 22 22 23 23 24 26 28 29 30 31 33 34 35 36 37 38 38 38 37 36 36 35 36 37 37 37 37 37 36 36 35 35 35 35 35 35 35 35 35 35 35 35 36 35 35 35 35 35 35 35 35 34 34 33 34 33 33 33 33 36 39 41 42 44 45 45 44 43 42 42 42 42 42 42
23 23 23 23 23 23 22 22 22 22 22 21 21 22 24 25 26 28 30 31 32 33 33 35 36 38 40 41 41 39 37 36 36 36 37 38 39 39 39 38 37 37 36 36 36 36 36 36 36 36 36 36 36 36 36 36 35 35 35 35 35 35 34 34 34 34 35 35 35 35 35 35 38 41 46 48 48 47 46 44 43 42 41 41 42 42
24 24 24 24 24 24 23 22 22 21 22 22 23 24 26 28 30 31 33 33 32 33 34 35 37 39 41 40 39 37 36 36 36 37 38 39 39 39 39 38 38 37 36 36 36 36 36 36 36 37 37 37 38 37 37 36 36 35 34 34 34 33 33 34 35 36 37 38 38 38 38 38 39 42 47 51 51 50 48 46 45 43 42 41 41 40
25 25 25 25 24 24 24 23 22 22 23 24 25 27 29 31 33 33 33 33 33 33 34 36 38 38 38 37 36 36 36 36 37 38 38 38 38 38 38 37 37 37 37 37 37 37 38 38 38 38 39 39 39 38 38 37 36 36 35 34 33 33 33 34 35 37 39 39 40 40 40 39 40 41 45 48 51 52 51 49 47 45 44 42 41 40
26 26 26 26 26 25 25 25 24 25 26 28 29 31 32 33 33 33 32 33 34 34 35 36 36 36 35 35 36 36 36 36 37 37 38 37 37 37 37 37 37 38 38 38 38 39 40 40 40 41 42 42 41 40 39 38 38 37 37 36 36 36 37 37 38 39 41 41 42 42 41 41 40 41 43 45 48 50 51 50 49 47 45 43 41 40
27 28 28 28 27 27 26 26 27 28 30 32 33 33 33 32 32 32 32 33 34 34 34 34 34 34 35 36 36 36 36 36 36 36 36 36 36 36 37 38 38 39 39 40 40 41 42 42 43 43 44 43 42 41 41 40 40 41 41 41 41 42 42 43 43 44 44 44 44 44 43 42 42 41 42 43 45 47 49 50 50 48 47 44 42 40
28 29 30 29 29 28 28 29 31 33 35 36 35 33 32 31 32 33 33 34 34 34 34 34 34 34 35 35 35 35 35 35 35 35 35 36 36 37 38 39 40 41 41 42 43 43 44 44 44 44 44 43 43 43 43 43 45 46 47 47 48 48 48 48 48 48 47 47 47 46 45 44 43 43 42 42 43 44 46 47 48 47 46 44 41 38
29 29 30 30 30 30 31 33 35 36 36 36 35 34 33 34 35 35 35 35 35 35 35 35 34 34 34 34 34 35 35 35 36 36 37 37 38 39 40 41 42 43 44 44 44 45 45 45 44 44 44 44 44 45 46 48 50 51 52 52 53 53 53 52 52 52 51 51 50 50 49 47 46 44 43 43 43 44 45 46 46 46 45 42 39 36
31 30 29 30 32 33 35 36 36 37 36 37 37 38 39 40 40 39 37 37 37 37 38 38 37 35 34 34 35 36 36 37 38 39 39 40 41 42 43 43 44 44 45 45 45 45 45 45 46 47 47 49 49 50 52 53 54 55 56 57 57 57 57 58 57 57 56 55 54 53 52 50 48 46 44 44 44 44 44 45 45 45 44 41 39 36
32 31 31 32 34 37 39 38 37 36 37 39 41 44 46 47 46 45 42 41 41 42 43 43 42 41 39 38 39 39 40 40 41 41 42 42 43 44 44 45 45 46 46 46 46 47 49 50 52 53 54 56 57 58 59 59 60 61 61 62 62 62 62 62 61 61 60 59 57 56 54 52 51 49 46 45 44 43 43 44 44 44 43 41 39 37
32 33 35 37 39 40 40 39 39 40 42 44 47 48 50 52 53 52 50 49 48 48 49 50 51 51 50 48 47 47 47 47 46 46 46 47 47 48 48 48 49 49 50 51 53 55 57 59 60 62 62 63 64 64 65 65 66 66 66 66 65 65 65 64 63 62 61 59 58 56 54 53 51 49 47 45 44 43 43 43 43 43 41 39 37 35
35 37 40 42 42 41 40 40 42 45 48 50 52 53 54 55 57 57 57 56 55 56 57 58 59 60 60 59 57 56 55 55 55 55 56 56 56 56 56 56 56 57 58 60 62 64 66 67 68 69 69 69 69 69 69 68 68 67 66 66 65 64 63 62 61 59 58 56 55 53 52 50 49 47 45 44 43 43 42 42 41 41 39 37 35 33
39 42 44 43 42 41 41 43 46 49 52 55 57 57 57 58 59 60 61 60 60 61 62 64 65 65 65 64 63 62 61 62 62 63 64 64 64 64 65 65 65 66 68 70 71 73 74 74 74 74 73 72 71 70 68 67 66 64 63 62 61 59 58 57 56 55 54 52 51 49 48 46 44 43 41 41 41 41 41 41 40 39 37 35 33 31
41 42 42 41 41 42 44 48 51 54 56 57 58 59 59 59 60 61 62 62 62 63 65 66 67 67 66 66 65 65 65 66 67 68 69 69 70 70 71 72 73 74 76 77 77 78 78 78 77 75 73 71 68 66 64 63 61 60 59 58 56 55 54 52 51 51 50 49 48 46 44 43 41 40 40 40 40 40 40 40 39 38 36 35 33 31
41 40 40 40 41 44 48 51 54 56 56 57 57 58 59 60 61 62 63 64 65 65 67 68 68 68 68 67 67 66 67 68 69 70 72 73 73 74 75 76 77 78 78 79 78 78 77 77 75 73 70 68 67 65 64 62 61 59 58 57 55 53 52 50 49 49 48 47 46 44 43 42 41 41 40 40 41 41 41 41 41 40 39 38 36 34
39 39 40 41 44 47 50 53 55 57 57 57 57 59 61 61 63 64 65 66 67 68 68 69 68 68 67 67 67 68 68 69 71 72 74 74 75 76 78 79 79 79 79 79 78 77 75 74 73 72 71 70 69 68 67 66 64 62 61 59 57 55 53 51 50 49 48 47 46 45 44 44 43 42 42 43 43 44 45 45 46 46 45 44 42 40
38 39 41 44 47 50 52 54 56 57 58 58 59 60 62 64 65 66 68 68 69 69 70 69 69 67 66 66 66 67 68 70 72 74 76 76 76 77 78 80 80 80 79 78 77 76 75 74 74 74 74 73 72 70 69 68 67 65 63 62 60 58 56 54 52 51 49 48 47 46 46 46 45 45 46 47 48 50 50 51 51 51 50 49 48 46
38 40 43 47 49 52 53 55 57 58 59 60 61 62 63 65 67 68 69 70 70 70 70 70 69 68 67 66 66 67 69 72 74 76 77 77 77 77 78 80 80 79 78 77 76 75 75 76 76 76 75 74 73 71 70 69 68 67 65 64 62 60 58 56 53 51 48 47 47 47 48 49 50 52 53 55 55 56 56 56 56 55 54 53 52 50
39 41 45 49 52 53 55 57 59 61 62 63 64 65 66 67 68 69 69 70 70 71 71 70 70 69 68 68 68 69 70 73 75 77 78 78 78 78 78 79 79 78 76 76 75 75 75 76 77 76 75 74 73 72 71 70 69 67 66 65 63 61 58 55 53 51 50 50 51 52 53 55 57 58 59 60 60 60 59 59 59 58 57 56 55 54
40 43 48 52 54 56 59 61 63 65 66 66 67 68 68 68 69 69 69 69 70 70 71 72 72 71 71 71 70 70 71 74 76 77 78 78 78 78 78 79 78 77 75 75 75 75 75 76 75 75 75 73 72 71 70 69 68 67 67 65 63 60 58 56 55 55 56 57 58 59 60 61 62 62 62 61 61 61 61 61 61 60 60 59 58 57
43 47 51 55 58 61 63 65 66 67 68 69 70 70 70 70 69 69 69 69 70 71 72 73 74 74 74 74 73 73 73 74 75 76 77 78 78 78 78 78 77 76 75 75 75 75 75 75 75 75 74 72 71 70 69 68 68 67 66 64 62 61 61 61 61 61 62 63 63 64 64 64 64 63 63 63 62 62 62 61 61 60 60 59 59 59
47 52 55 59 62 65 67 68 69 70 71 71 72 72 72 71 70 69 68 69 71 72 74 75 76 76 76 76 75 75 74 74 75 76 76 77 77 77 76 76 75 75 75 75 75 75 75 75 75 73 73 71 69 68 67 67 68 68 67 65 64 64 65 66 66 66 66 66 66 65 65 64 64 63 62 61 60 60 59 58 57 57 56 56 56 56
52 57 60 64 66 68 70 70 71 71 72 73 73 73 72 72 71 70 69 70 72 73 75 77 78 78 78 78 77 76 74 74 75 75 76 76 76 75 74 74 74 73 73 74 74 75 75 75 74 72 71 70 68 67 66 67 68 68 67 66 67 68 70 70 69 68 67 66 65 64 64 63 62 61 60 58 57 55 54 53 53 52 51 51 51 51
58 62 65 67 69 70 71 72 72 73 74 74 74 73 73 72 71 70 70 71 72 74 76 77 78 78 78 79 78 77 75 74 75 75 76 76 76 75 74 74 74 73 73 73 74 74 74 73 72 71 70 68 67 65 65 67 68 68 68 68 69 71 73 73 71 69 66 65 63 62 62 60 59 58 57 55 54 53 53 52 52 51 52 52 51 51
63 66 68 69 70 71 72 73 73 74 74 74 74 73 72 71 70 70 70 71 73 74 75 76 77 77 78 78 78 77 75 75 75 76 76 76 76 76 75 75 74 74 73 74 74 74 73 72 71 70 69 67 66 65 65 66 67 68 68 69 71 73 74 73 71 68 65 63 62 61 59 57 56 55 54 54 54 54 54 54 54 54 55 55 56 56
67 69 70 70 71 71 72 72 72 73 74 74 74 74 73 71 70 70 71 71 72 73 74 75 75 76 77 78 78 77 75 75 76 77 78 77 77 76 76 76 75 75 74 74 75 74 73 71 70 69 68 67 66 64 64 65 66 67 68 70 73 75 75 73 70 67 64 63 61 59 57 56 55 54 54 54 54 55 55 56 57 58 59 59 60 61
69 70 70 70 70 70 70 70 70 71 73 74 74 74 73 72 71 71 71 71 72 72 73 74 74 75 75 76 77 77 76 76 77 78 79 78 78 77 77 76 76 75 74 75 75 74 73 70 69 69 69 68 66 65 64 65 65 67 69 72 74 75 74 72 69 67 65 63 61 59 57 57 57 58 58 58 58 59 60 61 62 63 64 65 65 65
69 69 69 69 69 69 70 70 71 72 73 74 74 74 74 73 73 72 71 71 72 72 73 73 74 74 74 75 76 76 76 76 77 78 79 78 78 78 77 76 76 75 75 76 75 75 73 71 70 70 71 70 68 67 67 67 68 69 71 73 74 74 72 70 69 67 65 64 62 62 63 63 64 64 65 65 66 67 67 68 68 69 68 68 68 68
68 68 68 68 69 70 71 72 73 74 74 75 75 75 75 74 74 73 72 72 72 72 73 74 74 74 74 74 74 75 75 76 77 78 78 78 78 78 77 77 76 76 76 77 76 75 73 71 71 71 73 73 72 72 71 71 72 73 74 75 75 74 72 71 70 69 69 69 70 70 71 71 72 72 72 73 73 73 73 73 72 71 70 70 69 70
68 68 68 69 70 72 73 74 75 75 75 75 75 75 75 75 74 74 73 73 73 73 73 74 74 74 74 73 73 74 75 76 77 78 79 79 78 78 77 77 77 77 78 78 77 76 74 72 72 74 76 77 77 77 76 76 76 77 77 77 77 77 76 76 75 76 77 78 78 78 77 77 77 77 76 76 76 76 75 74 73 72 71 70 70 70
69 70 71 71 72 73 74 75 75 75 75 75 75 75 75 75 75 75 75 75 74 74 74 74 75 74 74 73 73 74 74 76 78 79 80 79 78 77 77 77 78 78 80 79 79 77 76 74 74 76 79 81 81 81 80 80 80 80 79 79 79 79 80 80 81 81 82 81 81 80 79 79 79 78 78 78 78 77 77 75 74 73 72 72 72 73
71 72 73 73 73 74 75 75 75 75 74 74 74 75 75 76 77 77 77 76 76 76 75 75 75 74 74 74 74 75 75 77 79 80 80 78 77 77 76 77 78 80 81 81 81 80 78 77 77 79 81 82 83 83 83 83 82 82 81 81 81 82 82 82 83 82 82 81 79 79 78 79 79 79 79 79 78 78 77 76 76 75 76 76 76 76
73 74 74 74 74 74 74 74 74 74 74 75 75 76 77 77 78 79 79 78 77 77 77 76 75 75 75 75 75 76 77 79 80 81 80 78 77 76 77 78 79 81 82 82 82 81 80 80 80 81 83 83 83 83 83 83 83 83 83 83 83 83 82 82 82 81 80 79 78 78 79 80 80 80 80 79 79 78 78 78 77 78 78 79 78 77
74 74 75 74 74 74 73 73 74 74 75 75 76 77 77 78 79 80 80 80 79 78 78 77 77 76 75 75 75 76 77 80 81 81 81 78 78 78 78 79 81 82 82 82 82 82 81 82 82 83 83 84 84 84 84 84 83 83 83 83 82 82 82 81 80 79 78 78 79 80 81 81 82 81 81 80 79 79 78 77 77 78 78 78 78 77
75 75 75 75 74 74 73 73 74 74 74 75 76 77 78 79 80 80 80 80 80 80 80 79 78 77 76 76 76 76 77 80 81 82 81 80 79 79 79 81 82 83 83 82 81 81 80 82 83 84 84 84 84 84 84 84 83 83 83 82 81 80 79 79 78 78 78 80 81 82 83 83 83 82 82 81 79 78 76 76 76 77 78 77 77 76
76 76 75 75 74 74 74 74 74 74 74 74 75 76 77 78 80 81 81 81 81 81 81 80 79 78 77 77 77 77 78 80 82 82 82 80 80 80 80 82 83 83 82 82 81 80 79 81 82 84 84 84 84 84 84 83 83 83 82 80 79 77 76 76 77 78 80 82 83 83 83 83 83 83 82 80 78 76 76 76 77 77 78 77 76 75
76 76 76 75 75 74 74 73 73 73 72 72 73 74 75 77 78 80 80 81 81 81 82 81 81 81 80 78 77 77 79 81 82 83 82 81 81 81 82 82 83 82 82 82 81 81 80 80 82 83 84 84 84 83 82 81 80 80 79 78 77 76 75 76 77 78 80 82 83 83 83 84 84 83 82 80 78 77 77 77 78 78 78 77 76 75
76 76 76 75 74 74 73 72 71 71 70 70 71 72 73 75 76 78 79 80 81 81 82 82 82 82 82 81 80 80 81 82 83 83 83 82 81 81 82 83 83 83 82 82 82 81 79 80 81 82 83 82 81 80 79 77 76 75 74 74 74 75 76 76 77 79 82 82 83 83 84 84 84 84 83 81 80 80 80 80 79 79 78 77 76 75
76 76 75 74 73 72 71 70 69 68 68 68 68 69 70 71 73 75 76 78 79 81 81 81 81 82 82 82 81 81 82 83 83 83 83 82 81 81 81 81 81 81 81 82 81 79 78 79 79 80 81 79 78 77 76 75 74 73 72 72 73 75 76 77 79 80 83 83 83 84 84 84 83 83 83 83 83 82 82 80 79 78 78 77 77 76
74 73 73 71 70 68 67 66 65 64 64 64 64 65 66 66 68 70 72 75 78 80 81 81 81 82 82 82 82 82 83 83 83 83 83 82 81 80 80 79 77 76 78 79 78 76 75 75 75 75 75 75 74 74 74 74 74 74 73 73 74 75 76 78 80 82 83 84 84 84 84 83 82 82 83 83 84 84 82 80 79 77 77 77 77 77
70 69 67 66 64 62 61 60 60 60 60 60 60 60 61 61 63 65 68 72 76 78 81 81 81 81 81 82 82 82 83 83 83 83 83 81 80 78 78 75 72 72 74 74 74 73 72 72 72 73 73 73 74 74 75 76 77 78 77 77 77 78 78 80 82 83 84 84 84 84 84 83 82 82 82 83 84 83 82 79 78 77 76 75 75 74
65 63 61 59 57 56 55 55 55 55 56 55 55 56 56 57 58 60 63 68 73 78 81 81 81 81 81 82 82 82 83 83 83 83 82 80 79 76 74 71 70 70 71 72 72 72 72 72 73 74 74 75 76 76 78 79 80 80 81 81 80 79 79 80 82 83 84 84 84 84 82 81 79 78 78 80 82 81 80 78 77 76 76 75 72 68
59 57 55 54 52 51 51 50 51 51 52 52 52 52 53 54 54 56 58 63 69 75 80 82 82 82 82 82 81 82 82 82 82 82 81 79 76 73 70 69 69 69 70 71 72 73 73 74 75 76 77 78 79 80 81 81 81 82 82 83 82 82 82 82 83 84 84 84 83 80 77 75 73 73 73 76 78 79 77 77 76 75 73 71 67 63
55 53 51 50 49 48 48 48 49 49 49 49 50 50 50 51 51 51 53 58 65 72 79 81 82 82 82 82 82 82 82 82 82 82 81 77 72 69 68 68 69 70 71 72 73 74 75 76 77 78 79 80 81 81 82 83 83 83 83 83 83 83 83 84 84 84 84 82 78 73 67 66 67 68 70 73 75 76 75 74 74 73 72 70 66 61
51 50 49 49 48 48 47 48 48 48 47 47 48 49 48 48 47 48 48 54 61 68 77 81 82 83 82 82 82 82 82 82 82 81 79 74 70 67 67 69 70 71 72 73 74 75 77 78 79 80 80 81 81 82 83 83 84 84 84 84 84 84 84 84 85 85 85 81 76 70 64 62 63 65 68 71 73 74 74 74 74 74 75 71 66 61
51 50 50 49 49 48 49 49 49 48 47 48 48 48 48 47 46 46 46 50 57 65 74 79 82 83 83 83 82 82 82 82 82 81 77 71 67 66 68 69 71 72 73 75 76 78 79 80 80 81 81 81 82 82 83 84 84 84 84 84 84 85 85 85 85 85 84 81 77 72 67 63 62 64 67 69 72 73 73 75 75 76 77 73 68 62
53 52 51 50 49 49 49 49 49 49 49 49 49 49 48 47 46 45 45 48 54 61 70 77 81 83 83 83 83 82 82 82 82 80 75 68 65 66 68 69 71 72 74 75 77 78 80 81 81 82 82 83 83 83 83 84 84 84 84 84 84 84 85 85 85 85 84 82 80 77 73 69 68 68 70 71 72 74 74 76 77 79 78 74 69 63
54 53 52 50 49 49 48 49 50 50 51 51 50 50 48 47 46 45 45 47 52 58 67 75 80 83 83 83 83 83 83 83 82 80 74 68 65 66 68 69 70 71 73 74 76 77 79 80 81 83 83 84 84 84 84 84 84 84 84 84 84 84 85 85 85 84 84 83 81 80 78 76 75 75 75 74 74 75 76 77 78 80 80 76 71 66
54 53 52 51 50 49 48 49 50 51 53 53 52 51 49 48 46 45 46 47 50 56 65 73 79 82 83 83 83 83 82 83 82 80 74 68 66 66 69 69 70 70 71 73 74 75 77 78 80 82 83 84 83 83 83 83 83 84 84 84 84 85 85 85 85 84 84 83 83 81 79 78 77 76 75 74 75 76 78 78 79 80 81 77 73 69
54 54 53 52 51 50 49 49 51 52 54 54 53 52 50 48 47 46 46 47 50 55 63 72 78 82 83 83 83 83 83 83 82 80 74 68 66 67 69 69 70 70 71 72 73 74 75 75 77 78 81 83 83 83 83 83 83 84 84 84 84 84 84 85 85 84 84 84 83 82 80 78 76 75 75 75 76 78 81 79 78 79 82 78 75 72
55 54 54 54 53 53 52 52 52 53 55 55 54 53 51 49 48 47 47 49 51 56 62 70 76 81 83 83 83 83 83 83 83 80 75 69 67 67 69 70 70 71 72 73 74 74 74 74 74 76 78 82 83 83 83 83 83 84 84 84 84 84 84 84 84 84 84 84 83 82 80 78 76 75 74 75 76 79 82 79 78 79 83 80 77 75